Home   Weather   Almería   Past weeks

Flag for Spain Past Weather in Almería, Spain — Yesterday and Last 2 Weeks

Now
69 °F

Mild.


Feels Like: 69 °F
Forecast: 65 / 78 °F
Wind: 7 mph from Southwest

Location: Almeria / Aeropuerto

Current Time: Jun 29, 2017 at 2:33:24 am

Latest Report: Jun 29, 2017 at 1:00 am


Visibility: N/A

Pressure: 29.84 "Hg

Humidity: 79%

Dew Point: 62 °F

Location of AlmeríaLocation

Past Weather in Almería — Graph

°F

Almería Temperature Yesterday

Maximum temperature yesterday: 82 °F (at 3:00 pm)
Minimum temperature yesterday: 68 °F (at 6:00 am)
Average temperature yesterday: 75 °F

High & Low Weather Summary for the Past Weeks

 TemperatureHumidityPressure
High100 °F (Jun 25, 2:00 pm)90% (Jun 16, 7:00 am)30.16 "Hg (Jun 16, 7:00 am)
Low68 °F (Jun 28, 6:00 am)16% (Jun 25, 3:00 pm)29.71 "Hg (Jun 27, 8:00 pm)
Average81 °F61%29.96 "Hg
* Reported Jun 14 1:00 am — Jun 29 1:00 am, Almería. Weather by CustomWeather, © 2017

Note: Actual official high and low records may vary slightly from our data, if they occured in-between our weather recording intervals... More about our weather records

Advertising

Almería Weather History for the Previous 24 Hours

Scroll right to see more
 ConditionsComfort  
Time TempWeatherWind HumidityBarometerVisibility
1:00 am
Thu, Jun 29
69 °FMild.7 mph79%29.84 "HgN/A
12:00 am70 °FMild.12 mph77%29.84 "HgN/A
11:00 pm
Wed, Jun 28
71 °FMild.15 mph75%29.82 "HgN/A
10:00 pm72 °FMild.24 mph72%29.79 "HgN/A
9:00 pm74 °FMild.24 mph64%29.77 "HgN/A
8:00 pm76 °FPassing clouds.28 mph65%29.76 "Hg31 mi
7:00 pm78 °FWarm.32 mph61%29.75 "HgN/A
6:00 pm79 °FWarm.33 mph56%29.76 "HgN/A
5:00 pm80 °FPassing clouds.37 mph54%29.78 "Hg31 mi
4:00 pm81 °FWarm.33 mph53%29.79 "HgN/A
3:00 pm82 °FWarm.32 mph49%29.81 "HgN/A
2:00 pm81 °FPassing clouds.29 mph51%29.83 "Hg31 mi
1:00 pm80 °FWarm.26 mph53%29.85 "HgN/A
12:00 pm79 °FWarm.24 mph60%29.85 "HgN/A
11:00 am77 °FSunny.24 mph61%29.86 "Hg31 mi
10:00 am78 °FWarm.17 mph59%29.86 "HgN/A
9:00 am76 °FMild.2 mph72%29.86 "HgN/A
8:00 am71 °FSunny.2 mph84%29.85 "Hg19 mi
7:00 am68 °FMild.5 mph88%29.85 "HgN/A
6:00 am68 °FMild.1 mph88%29.85 "HgN/A
5:00 am69 °FClear.5 mph87%29.84 "Hg16 mi
4:00 am69 °FMild.2 mph86%29.84 "HgN/A
3:00 am70 °FMild.7 mph85%29.85 "HgN/A
2:00 am71 °FMild.6 mph83%29.86 "HgN/A
Weather by CustomWeather, © 2017

See weather overviewHow to use our weather pages